www.pogodaiklimat.ru

Погода и климат >> Архив погоды >> Россия >> Иркутская область >> Инга


АРХИВ ПОГОДЫ в Инге

Время (UTC), дата Ветер
(напр.,м/с)
 
Видим.   Явления Облачность Т
(С)
Тd
(С)
f
(%)
Тe
(С)
Тes
(С)
Комфортность P
(гПа)
Po
(гПа)
Тmin
(С)
Tmax
(С)
R
(мм)
R24
(мм)
S
(см)
06 19.04 З 4 50 км {ливн. осадки} 8/3 1000 м
[Sc Ci sp]
+2.1 -15.3 26 -2 +3 1017.5 951.6
09 19.04 З 4 50 км 8/3 600 м
[Cb cap Cc]
+2.9 -13.8 28 -1 +2 1019.2 953.4
12 19.04 ЮЗ 2 50 км 3/3 600 м
[Cb cap]
+2.1 -14.2 29 0 0 1021.3 955.2 +4.8 0.0
15 19.04 З 2 н/о ясно -2.7 -12.2 48 -6 -6 1023.5 956.1
18 19.04 ЮЗ 2 н/о ясно -5.0 -12.3 57 -9 -9 1024.7 956.6
21 19.04 штиль 0 н/о 1/0
[Ci fib]
-9.7 -12.3 81 -10 -10 1025.8 956.5
00 20.04 штиль 0 50 км 6/0
[Ci fib]
-6.5 -12.5 62 -7 -5 1024.6 956.1 -10.6 2
03 20.04 В 2 50 км 10/0
[Ci]
+1.1 -12.6 35 -1 +7 1019.8 953.5
06 20.04 В 2 50 км 8/0
[Ci fib]
+5.8 -13.0 24 +4 +15 опасность
простуды
1015.3 950.4
09 20.04 СВ 2 50 км 3/0
[Ci fib]
+7.6 -14.7 19 +7 +12 1011.6 947.4
12 20.04 В 2 50 км 10/0
[Ci]
+5.8 -15.2 20 +5 +5 1011.0 946.4 +7.8
15 20.04 штиль 0 н/о 10/0
[Ci fib]
-2.6 -8.7 63 -3 -3 1012.7 946.1
18 20.04 штиль 0 н/о 10/0
[Ac As Ci fib]
-4.1 -7.9 75 -5 -5 1011.5 944.5
21 20.04 штиль 0 н/о 4/0
[Ci sp]
-6.1 -8.8 81 -7 -7 1009.7 942.4
00 21.04 штиль 0 50 км 10/3 1000 м
[Cu hum Ac und Ci fib]
-3.4 -8.1 70 -4 -3 1007.6 941.1 -6.9 0
03 21.04 штиль 0 50 км 10/0
[Ac trans Ci fib]
+11.3 -4.4 33 +11 +19 1002.0 939.2
06 21.04 штиль 0 50 км 10/4 600 м
[Cb cap Ac trans Ci fib]
+12.3 -6.0 27 +12 +17 1000.5 938.0
09 21.04 С 2 50 км 10/6 600 м
[Cb cap Ci fib]
+12.4 -6.8 26 +12 +14 1000.4 937.9
12 21.04 С 2 50 км 10/10 600 м
[Cb cap]
+8.2 -9.2 28 +7 +7 1004.5 940.8 +12.7
15 21.04 СЗ 2 н/о 10/10 600 м
[Cb cap]
+3.0 +0.1 81 0 0 1010.2 945.0
18 21.04 штиль 0 н/о 10/10 600 м
[Cb cap]
+1.5 +0.1 90 0 0 1012.8 947.1
21 21.04 ЮЗ 2 н/о 10/10 600 м
[Cb cap]
+0.3 -1.1 90 -3 -3 1015.6 949.5
00 22.04 Ю 2 50 км 10/10 600 м
[Cb cap]
+0.6 -1.1 88 -3 -3 1017.0 950.8 +0.2 0
03 22.04 СЗ 4 10 км слаб. ливневой снег 10/10 600 м
[Cb cap]
+2.0 -5.2 59 -2 -2 1018.6 952.6
06 22.04 С 2 50 км в посл. час ливневой снег 10/9 600 м
[Cb cap Ci fib]
+3.6 -7.0 46 +1 +2 1018.3 952.7
09 22.04 ЮЗ 2 50 км в посл. час ливневой снег 10/8 600 м
[Cb cap Cs]
+1.9 -3.1 69 -1 -0 1019.8 953.8
12 22.04 ЮЗ 2 50 км {ливн. осадки} 10/8 600 м
[Cb cap Ci fib]
+1.9 -5.7 57 -1 -1 1020.7 954.6 +4.0 0.1
15 22.04 штиль 0 н/о 10/3 1000 м
[Sc Ci fib]
-2.5 -4.8 84 -4 -4 1024.6 957.2
18 22.04 штиль 0 н/о 6/3 1000 м
[Sc Ci fib]
-5.0 -6.3 91 -6 -6 1027.9 959.7
21 22.04 З 2 н/о 8/4 1000 м
[Sc Ci fib]
-6.3 -7.5 91 -11 -11 1029.6 960.9
00 23.04 штиль 0 50 км 1/1 1000 м
[Sc]
-3.9 -7.2 78 -5 -2 1030.7 962.5 -7.4
03 23.04 З 2 50 км 1/1 1000 м
[Cu hum]
+4.3 -9.6 36 +2 +12 опасность
простуды
1028.5 962.4
06 23.04 Ю 2 50 км 6/4 1000 м
[Cu med, cong Ci sp]
+7.6 -11.2 25 +7 +14 1025.7 960.5
09 23.04 С 2 50 км ясно +9.2 -13.0 19 +8 +14 1022.9 958.3
12 23.04 В 2 50 км ясно +7.6 -10.6 26 +6 +7 1022.2 957.3 +9.6
15 23.04 З 2 н/о ясно -3.1 -7.3 73 -7 -7 1025.2 957.6
18 23.04 штиль 0 н/о ясно -5.4 -8.3 80 -6 -6 1024.4 956.3
21 23.04 штиль 0 н/о 3/0
[Ci fib]
-7.9 -9.7 87 -9 -9 1023.6 954.9
00 24.04 штиль 0 50 км 4/0
[Ci sp]
-2.9 -7.4 71 -4 -1 1021.3 954.0 -8.8
03 24.04 СВ 2 50 км 3/0
[Ci sp]
+7.6 -8.3 31 +6 +16 опасность
простуды
1016.8 952.2
06 24.04 В 2 50 км 8/1 1000 м
[Cu hum Ci sp]
+12.2 -10.1 20 +12 +22 1013.5 950.1
09 24.04 СВ 2 50 км 4/3 600 м
[Cb cap Ci sp]
+14.2 -10.3 17 +14 +18 1011.2 948.4
12 24.04 штиль 0 50 км 10/3 600 м
[Cb cap Ac trans Ci sp]
+8.5 -4.4 40 +8 +8 1012.7 948.6 +15.4
15 24.04 штиль 0 н/о 10/4 600 м
[Cb cap Ac trans Ci sp]
+1.9 -3.5 67 +1 +1 1015.4 949.6
18 24.04 штиль 0 н/о 10/1 600 м
[Cb cap Ac trans Ci sp]
-0.1 -3.8 76 -1 -1 1015.9 949.6
21 24.04 З 2 н/о 3/0
[Ac trans Ci sp]
-2.2 -4.8 82 -6 -6 1018.0 951.0
00 25.04 З 2 50 км 3/1 600 м
[Cb cap Ac trans]
+2.4 -3.2 66 -0 +1 1018.5 952.7 -2.9
03 25.04 СЗ 2 50 км 1/1 600 м
[Cb calv]
+12.5 -8.2 23 +12 +22 1015.5 952.1
06 25.04 ЮВ 2 50 км 3/3 1000 м
[Cu hum]
+16.1 -8.6 17 +16 +26 1012.6 950.1
09 25.04 Ю 2 50 км 3/1 1000 м
[Cu hum Ci fib]
+17.4 -11.2 13 +18 +23 1007.8 945.9
12 25.04 ЮВ 2 50 км 10/0
[Ac As Ci]
+16.3 -13.6 12 +17 +17 1006.8 944.6 +17.6
15 25.04 штиль 0 н/о 6/0
[Ci fib]
+2.2 -5.7 56 +2 +2 1008.6 943.3
18 25.04 З 2 н/о 10/10 600 м
[Cb cap]
+3.1 -4.1 59 +1 +1 1007.8 942.8
21 25.04 ЮЗ 2 н/о 10/6 600 м
[Cb cap Ac trans Ci fib]
+0.6 -5.9 62 -2 -2 1008.7 943.1
00 26.04 ЮЗ 2 н/о 10/6 600 м
[Cb cap Ac trans Ci fib]
+1.4 -4.5 65 -2 -1 1009.6 944.1 +0.5
03 26.04 С 2 50 км 10/3 600 м
[Cb cap Ac trans Cs]
+11.0 -0.4 45 +10 +14 1010.8 947.4

 

Местоположение метеостанции Инга (Иркутская область, Россия): широта 52.97 долгота 101.90 высота над уровнем моря 543 м.

В архиве по умолчанию представлена погода в Инге за последнюю неделю. Архивные данные за месяц целиком и за предыдущие месяцы, начиная с января 2011 года, Вы можете получить, выбрав интересующий диапазон дат из раскрывающегося списка и нажав кнопку "Ввод!".


*Определитесь, кто Вы:
робот инопланетянин человек

Внимание! Время в таблицах - всемирное. Для получения местного времени необходимо прибавить поправку, которая равна 8 ч.

Смотрите также архив погоды в соседних городах и на ближайших метеорологических станциях:

Погода в Сараме (Иркутская область, Россия) (63 км)
Погода в Заларях (Иркутская область, Россия) (76 км)
Погода в Черемхово (Иркутская область, Россия) (77 км)
Погода в Зиме (Иркутская область, Россия) (107 км)
Погода в Дабадах (Иркутская область, Россия) (111 км)
Погода в Балаганске (Иркутская область, Россия) (136 км)
Погода в Ангарск (Иркутская область, Россия) (139 км)
Погода в Тунке (Бурятия, Россия) (144 км)
Погода в Кырене (Бурятия, Россия) (144 км)
Погода в Орлике (Бурятия, Россия) (150 км)

Пояснения к столбцам:

Ветер - указаны скорость ветра в м/с - средняя за 10 мин, порывы в срок и между сроками (в фигурных скобках) и направление, откуда дует ветер: С - северный, СВ - северо-восточный, В - восточный, ЮВ - юго-восточный, Ю - южный, ЮЗ - юго-западный, З - западный, СЗ - северо-западный.
Видимость - горизонтальная дальность видимости в метрах или километрах. При видимости от 1 до 10 км при отсутствии осадков обычно наблюдается дымка, при ухудшении видимости до 1 км и менее - туман. В сухую погоду видимость может ухудшаться дымом, пылью или мглою.
Явления - указаны атмосферные явления, наблюдавшиеся в срок или в последний час перед сроком; фигурными скобками обозначены явления, наблюдавшиеся между сроками (за 1-3 часа до срока); квадратными скобками обозначены град или гололедные отложения с указанием их диаметра в мм.
Облачность - указаны через наклонную черту общая и нижняя облачность в баллах и высота нижней границы облаков в метрах; квадратными скобками обозначены формы облаков: Ci - перистые, Cs - перисто-слоистые, Cc - перисто-кучевые, Ac - высококучевые, As - высокослоистые, Sc - слоисто-кучевые, Ns - слоисто-дождевые, Cu - кучевые, Cb - кучево-дождевые. Подробнее классификацию облаков см. в Атласе облаков (PDF).
T - Температура воздуха - температура, измеренная на высоте 2 м над землей.
Td - Температура точки росы - температура, при понижении до которой содержащийся в воздухе водяной пар достигнет насыщения.
f - Относительная влажность воздуха - влажноcть воздуха, измеренная на высоте 2 м над землей.
Te - Эффективная температура - температура, которую ощущает одетый по сезону человек в тени. Характеристика душности погоды. При расчете учитывается влияние влажности воздуха и скорости ветра на теплоощущения человека.
Tes - Эффективная температура на солнце - температура, которую ощущает человек, с поправкой на солнечный нагрев. Характеристика знойности погоды. Зависит от высоты солнца над горизонтом, облачности и скорости ветра. Ночью, в пасмурную погоду, а также при ветре 12 м/с и более поправка равна нулю.
P - Атмосферное давление - приведенное к уровню моря атмосферное давление.
Po - Атмосферное давление - измеренное на уровне метеостанции атмосферное давление.
Tmin - Минимальная температура - минимум температуры воздуха на высоте 2 м над землей.
Tmax - Максимальная температура - максимум температуры воздуха на высоте 2 м над землей.
R - Количество осадков - Количество выпавших осадков за период времени, мм. При наведении курсора мыши на число - период времени, за который выпало указанное количество осадков.
R24 - Количество осадков - Количество выпавших осадков за 24 часа, мм.
S - Снежный покров - Высота снежного покрова, см. При наведении курсора мыши на число - состояние снежного покрова и степень покрытия местности в баллах.